Regional Weather Roundup
Issued by NWS

Home | Current Version | Previous Version | Graphics & Text | Print | Product List | Glossary On
Versions: 1 2 3 4 5 6 7 8 9 10 11 12 13 14 15 16 17 18 19 20 21 22 23 24 25 26 27 28 29 30 31 32 33 34 35 36 37 38 39 40 41 42 43 44 45 46 47 48 49 50
000
ASUS43 KOAX 231902
RWRNE

WEATHER ROUNDUP FOR NEBRASKA
NATIONAL WEATHER SERVICE OMAHA NE
100 PM CST FRI FEB 23 2018

NOTES: SATELLITE DATA IS BEING USED TO AUGMENT CLOUD COVER ABOVE
       12000 FEET.
       "FAIR" INDICATES FEW OR NO CLOUDS BELOW 12,000 FEET WITH NO
       SIGNIFICANT WEATHER AND/OR OBSTRUCTIONS TO VISIBILITY.


NEZ001>004-019>022-054>056-232000-
NEBRASKA PANHANDLE

CITY           SKY/WX    TMP DP  RH WIND       PRES   REMARKS
SCOTTSBLUFF    SUNNY     21  13  71 E10       30.11F WCI  10
ALLIANCE       SUNNY     17  10  74 CALM      30.12F
CHADRON        MOSUNNY   15   5  64 CALM      30.17F
GORDON         FAIR      18   8  63 CALM      30.15F
SIDNEY         SUNNY     28  12  51 E9        30.11F WCI  19
$$

NEZ057>060-069>072-079>082-232000-
SOUTHWEST NEBRASKA

CITY           SKY/WX    TMP DP  RH WIND       PRES   REMARKS
NORTH PLATTE   SUNNY     24  14  65 E7        30.23F WCI  16
IMPERIAL       SUNNY     28  17  63 E6        30.18F WCI  22
LEXINGTON      CLOUDY    22  18  86 CALM      30.25F
MCCOOK         SUNNY     31  24  75 N3        30.22F
OGALLALA       SUNNY     27  15  61 E8        30.20S WCI  18
$$

NEZ005>010-023>029-035>040-094-232000-
NORTH CENTRAL NEBRASKA

CITY           SKY/WX    TMP DP  RH WIND       PRES   REMARKS
VALENTINE      SUNNY     19   8  62 W6        30.22F WCI  11
AINSWORTH      SUNNY     19  13  75 NW6       30.23R WCI  11
BROKEN BOW     CLOUDY    21  16  81 CALM      30.25F
O`NEILL        SUNNY     18  14  84 CALM      30.28R
ORD            CLOUDY    23  16  74 CALM      30.27F
THEDFORD       SUNNY     22  13  67 CALM      30.22S
$$

NEZ041-046>049-061>064-073>077-083>087-232000-
SOUTH CENTRAL NEBRASKA

CITY           SKY/WX    TMP DP  RH WIND       PRES   REMARKS
GRAND ISLAND   CLOUDY    23  19  85 VRB3      30.30F
AURORA         CLOUDY    22  20  93 N6        30.30F WCI  15
HASTINGS       CLOUDY    29  22  75 NE6       30.27F WCI  23
HEBRON         PTSUNNY   32  28  85 N6        30.28F WCI  26
HOLDREGE       PTSUNNY   32  25  74 NE6       30.24F WCI  26
YORK           PTSUNNY   25  25 100 N8        30.31F WCI  16
$$

NEZ011>018-030>034-042>045-232000-
NORTHEAST NEBRASKA

CITY           SKY/WX    TMP DP  RH WIND       PRES   REMARKS
NORFOLK        CLOUDY    23  18  81 VRB6      30.28F WCI  16
ALBION         CLOUDY    25  19  76 CALM      30.30F
BLAIR          CLOUDY    26  22  85 NW7       30.31F WCI  18
COLUMBUS       PTSUNNY   33  22  63 VRB5      30.33F WCI  29
FREMONT        CLOUDY    25  20  82 NW3       30.34S
TEKAMAH        CLOUDY    24  19  81 W6        30.35R WCI  17
WAYNE          CLOUDY    22  21  93 NW6       30.31F WCI  15
$$

NEZ050>053-065>068-078-088>093-232000-
SOUTHEAST NEBRASKA

CITY           SKY/WX    TMP DP  RH WIND       PRES   REMARKS
LINCOLN        PTSUNNY   31  24  75 N5        30.32F WCI  26
OMAHA EPPLEY   PTSUNNY   27  22  81 N13       30.33F WCI  16
BEATRICE       SUNNY     32  28  84 N9        30.29F WCI  24
FALLS CITY     MOSUNNY   35  26  69 NW6       30.30S WCI  30
NEBRASKA CITY  SUNNY     31  29  93 N7        30.30F WCI  25
PLATTSMOUTH    PTSUNNY   30  26  85 NW10      30.30F WCI  21
$$

NEZ044-045-051>053-067-232000-
OMAHA AREA

CITY           SKY/WX    TMP DP  RH WIND       PRES   REMARKS
OMAHA EPPLEY   PTSUNNY   27  22  81 N13       30.33F WCI  16
BLAIR          CLOUDY    26  22  85 NW7       30.31F WCI  18
FREMONT        CLOUDY    25  20  82 NW3       30.34S
MILLARD        PTSUNNY   29  23  77 NW7       30.33F WCI  22
OFFUTT AFB     CLOUDY    31  26  79 NW7       30.31F WCI  25
PLATTSMOUTH    PTSUNNY   30  26  85 NW10      30.30F WCI  21
WAHOO          MOCLDY    25  20  81 N8        30.34S WCI  16
$$




USA.gov is the U.S. government's official web portal to all federal, state and local government web resources and services.